リニア-ニート彗星

193P/LINEAR-NEAT (2021)

English version
Home page
Updated on September 18, 2021

---------------------------------------------------------------------

・ プロフィール

・ 写真集

・ 軌道要素

Epoch 2021 July 5.0 TT = JDT 2459400.5
T 2021 Aug. 25.32325 TT                                 Rudenko
q   2.1680207            (2000.0)            P               Q
n   0.14552002     Peri.    8.12117     +0.95677260     +0.28021881
a   3.5797626      Node   335.17467     -0.27617476     +0.79142872
e   0.3943675      Incl.   10.68840     -0.09117950     +0.54324764
P   6.77
From 401 observations 2001 Aug. 17-2021 June 27, mean residual 0".7.
     Nongravitational parameters A1 = +1.70, A2 = -0.1495.

・ 星図

・ 光度変化

        m1 = 11.0 + 5 logΔ + 15.0 log r(t - 80)

---------------------------------------------------------------------

軌道要素はM.P.E.C. 2021-N06に掲載されたものです。
星図はステラナビゲータ Ver.10 (アストロアーツ) で作成したものです。
光度グラフはComet for Windowsで作成したものです。

---------------------------------------------------------------------

Copyright(C) Seiichi Yoshida (comet@aerith.net). All rights reserved.